67P/Churyumov-Gerasimenko (2002)

Japanese version
Home page
Updated on May 5, 2012

---------------------------------------------------------------------

* Profile

* Pictures

* Orbital Elements

Epoch 2002 Sept. 3.0 TT = JDT 2452520.5
T 2002 Aug. 18.30935 TT                                 MPC
q   1.2923342            (2000.0)            P               Q
n   0.15005347     Peri.   11.45093     +0.46416752     -0.88049792
a   3.5072928      Node    50.96962     +0.80255481     +0.37208131
e   0.6315294      Incl.    7.12049     +0.37477231     +0.29373272
P   6.57
From 2745 observations 1969 Sept. 11-2012 Apr. 25, mean residual 0".8.
     Nongravitational parameters A1 = +0.08, A2 = +0.0100.

* Finding Charts

* Magnitudes Graph

        m1 = 10.8 + 5 log d + 10.0 log r(t - 40)

---------------------------------------------------------------------

The orbital elements are published on M.P.E.C. 2012-J16.
The charts are made with StellaNavigator Ver.2.0 for Windows (AstroArts / ASCII).
The magnitudes graphs are made with Comet for Windows.

---------------------------------------------------------------------

Copyright(C) Seiichi Yoshida (comet@aerith.net). All rights reserved.